Regional Weather Roundup
Issued by NWS

Home | Current Version | Previous Version | Graphics & Text | Print | Product List | Glossary On
Versions: 1 2 3 4 5 6 7 8 9 10 11 12 13 14 15 16 17 18 19 20 21 22 23 24 25 26 27 28 29 30 31 32 33 34 35 36 37 38 39 40 41 42 43 44 45 46 47 48 49 50
000
ASUS44 KMEG 310100
RWRTN
TENNESSEE HOURLY STATE WEATHER ROUNDUP
NATIONAL WEATHER SERVICE MEMPHIS TN
800 PM CDT SAT AUG 30 2014

TNZ002-004-019-021-049-052-054-088>092-310200-
WEST TENNESSEE

CITY           SKY/WX    TMP DP  RH WIND       PRES   REMARKS
MEMPHIS INTL   CLOUDY    75  72  90 SE9       30.01S
NWS MEMPHIS      N/A     73 N/A N/A MISG        N/A
JACKSON        LGT RAIN  74  71  91 S8G18     30.04R
DYERSBURG      CLOUDY    73  64  73 S3        30.02R
UNION CITY     MOCLDY    73  72  94 CALM      30.01R
PARIS          PTCLDY    72  70  94 CALM      30.04R
SAVANNAH       PTCLDY    72  72 100 S3        30.07S
$$

TNZ008-025-027-028-033-062-065-066-310200-
NORTH MIDDLE TENNESSEE

CITY           SKY/WX    TMP DP  RH WIND       PRES   REMARKS
NASHVILLE      HVY RAIN  74  73  97 W7        30.09R FOG
CLARKSVILLE    CLOUDY    75  72  90 SE5       30.05R
COOKEVILLE       N/A     73  72  94 CALM      30.08F
CROSSVILLE     LGT RAIN  72  68  87 VRB6G21   30.14R
$$

TNZ061-075-076-078-094-096-097-310200-
SOUTH MIDDLE TENNESSEE

CITY           SKY/WX    TMP DP  RH WIND       PRES   REMARKS
WINCHESTER     CLOUDY    72  70  94 W10       30.15R
SHELBYVILLE    CLOUDY    72  72 100 SW13      30.13R
$$

TNZ017-018-042-046-047-310200-
NORTHEAST TENNESSEE

CITY           SKY/WX    TMP DP  RH WIND       PRES   REMARKS
TRI CITIES     CLOUDY    81  61  50 SE5       30.14R
ELIZABETHTON   PTCLDY    72  64  78 CALM      30.16R
$$

TNZ012-013-036-069-073-074-310200-
CENTRAL EAST TENNESSEE

CITY           SKY/WX    TMP DP  RH WIND       PRES   REMARKS
KNOXVILLE      MOCLDY    77  74  90 SE3       30.08R
OAK RIDGE      LGT RAIN  79  73  82 W6        30.12R
GATLINBURG     MOCLDY    75  72  88 CALM      30.10R
$$

TNZ083-085-099-310200-
SOUTHEAST TENNESSEE

CITY           SKY/WX    TMP DP  RH WIND       PRES   REMARKS
CHATTANOOGA    CLOUDY    74  70  87 CALM      30.10R
$$

SKY/WX REPORTED AS FAIR MEANS FEW OR NO CLOUDS BELOW
12 THOUSAND FEET.




USA.gov is the U.S. government's official web portal to all federal, state and local government web resources and services.